Check out our new BloomSky Weather System.

Active alerts


No alerts


Thunder radar  blitzortung!


Rain radar more information rain snow radar


Visit our other weather sites:

Template documentation
and downloads

And another site



Weather Underground History page Text

Daily Summary for May 28, 2017 Units:  Metric    English   Both
« Previous Day
Next Day »
Daily Weekly Monthly Yearly Custom
  High: Low: Average:
Temperature: 33.6 °C 21.9 °C 29.1 °C
Dew Point: 26.5 °C 20.6 °C 24.9 °C
Humidity: 93 % 62 % 79 %
Wind Speed: 22.5 km/h 0 km/h 7.1 km/h
Wind Gust: 29 km/h - -
Wind:- - SSE
Pressure: 1017.2 hPa 1008 hPa -
Precipitation: 8.64 mm    
Historical Graphs
 
 
Tabular Data for May 28, 2017
Time Temperature Dew Point Pressure Wind Wind Speed Wind Gust Humidity Rainfall Rate (Hourly)
00:01 26.8 °C 24.8 °C 1010 hPa South 8 km/h 20.9 km/h 89 % 0 mm
00:06 26.8 °C 24.8 °C 1010 hPa SE 9.7 km/h 20.9 km/h 89 % 0 mm
00:11 26.8 °C 24.8 °C 1010 hPa SSE 12.9 km/h 24.1 km/h 89 % 0 mm
00:16 26.9 °C 24.9 °C 1010 hPa SE 8 km/h 24.1 km/h 89 % 0 mm
00:21 26.9 °C 24.9 °C 1010 hPa SE 9.7 km/h 24.1 km/h 89 % 0 mm
00:26 26.9 °C 24.9 °C 1010 hPa South 4.8 km/h 22.5 km/h 89 % 0 mm
00:31 26.9 °C 24.9 °C 1010 hPa SE 8 km/h 22.5 km/h 89 % 0 mm
00:36 26.8 °C 24.8 °C 1010.4 hPa SSE 8 km/h 22.5 km/h 89 % 0 mm
00:41 26.8 °C 24.8 °C 1010.4 hPa SSE 19.3 km/h 20.9 km/h 89 % 0 mm
00:46 26.8 °C 24.8 °C 1010.4 hPa SSW 8 km/h 20.9 km/h 89 % 0 mm
00:51 26.8 °C 24.8 °C 1010.4 hPa South 8 km/h 20.9 km/h 89 % 0 mm
00:56 26.8 °C 24.8 °C 1010.4 hPa SSW 8 km/h 20.9 km/h 89 % 0 mm
01:01 26.8 °C 24.8 °C 1010.4 hPa SSE 9.7 km/h 14.5 km/h 89 % 0 mm
01:06 26.8 °C 24.8 °C 1010.4 hPa SSW 6.4 km/h 14.5 km/h 89 % 0 mm
01:11 26.8 °C 24.8 °C 1010.4 hPa SSW 8 km/h 20.9 km/h 89 % 0 mm
01:16 26.8 °C 24.8 °C 1010.4 hPa SE 8 km/h 22.5 km/h 89 % 0 mm
01:21 26.8 °C 24.8 °C 1010.4 hPa South 8 km/h 22.5 km/h 89 % 0 mm
01:26 26.8 °C 24.8 °C 1010.4 hPa South 6.4 km/h 22.5 km/h 89 % 0 mm
01:31 26.8 °C 24.8 °C 1010.4 hPa SSW 9.7 km/h 19.3 km/h 89 % 0 mm
01:36 26.8 °C 24.8 °C 1010.4 hPa SSE 11.3 km/h 19.3 km/h 89 % 0 mm
01:41 26.8 °C 24.8 °C 1010.4 hPa SSE 6.4 km/h 20.9 km/h 89 % 0 mm
01:46 26.8 °C 24.8 °C 1010.7 hPa SSW 8 km/h 20.9 km/h 89 % 0 mm
01:51 26.8 °C 24.8 °C 1010.7 hPa West 1.6 km/h 20.9 km/h 89 % 0 mm
01:56 26.9 °C 24.9 °C 1010.7 hPa South 4.8 km/h 20.9 km/h 89 % 0 mm
02:01 26.9 °C 24.9 °C 1010.7 hPa SSW 9.7 km/h 20.9 km/h 89 % 0 mm
02:06 26.9 °C 24.9 °C 1010.7 hPa SSE 14.5 km/h 16.1 km/h 89 % 0 mm
02:11 26.9 °C 24.9 °C 1010.7 hPa SSW 8 km/h 25.7 km/h 89 % 0 mm
02:16 26.9 °C 24.9 °C 1010.7 hPa South 9.7 km/h 25.7 km/h 89 % 0 mm
02:21 26.9 °C 24.9 °C 1010.7 hPa SSW 9.7 km/h 25.7 km/h 89 % 0 mm
02:26 26.9 °C 24.7 °C 1010.4 hPa SSW 11.3 km/h 22.5 km/h 88 % 0 mm
02:31 26.9 °C 24.7 °C 1010.4 hPa SSW 9.7 km/h 24.1 km/h 88 % 0 mm
02:36 26.9 °C 24.7 °C 1010.4 hPa WSW 9.7 km/h 24.1 km/h 88 % 0 mm
02:41 26.9 °C 24.7 °C 1010.4 hPa South 4.8 km/h 24.1 km/h 88 % 0 mm
02:46 26.9 °C 24.7 °C 1010.4 hPa SW 1.6 km/h 16.1 km/h 88 % 0 mm
02:56 26.9 °C 24.9 °C 1010 hPa South 3.2 km/h 11.3 km/h 89 % 0 mm
03:01 26.8 °C 24.6 °C 1010 hPa South 4.8 km/h 11.3 km/h 88 % 0 mm
03:06 26.8 °C 24.6 °C 1010 hPa SE 1.6 km/h 11.3 km/h 88 % 0 mm
03:11 26.8 °C 24.6 °C 1010 hPa SSW 6.4 km/h 11.3 km/h 88 % 0 mm
03:16 26.8 °C 24.6 °C 1009.7 hPa SSE 4.8 km/h 14.5 km/h 88 % 0 mm
03:21 26.8 °C 24.6 °C 1009.7 hPa SW 8 km/h 14.5 km/h 88 % 0 mm
03:26 26.8 °C 24.6 °C 1009.4 hPa South 8 km/h 14.5 km/h 88 % 0 mm
03:31 26.7 °C 24.5 °C 1009.7 hPa SE 4.8 km/h 14.5 km/h 88 % 0 mm
03:36 26.7 °C 24.5 °C 1009.7 hPa SSE 6.4 km/h 14.5 km/h 88 % 0 mm
03:41 26.6 °C 24.6 °C 1009.7 hPa SE 1.6 km/h 14.5 km/h 89 % 0 mm
03:46 26.6 °C 24.6 °C 1009.7 hPa SSE 3.2 km/h 12.9 km/h 89 % 0 mm
03:51 26.5 °C 24.5 °C 1009.4 hPa SSE 4.8 km/h 12.9 km/h 89 % 0 mm
03:56 26.4 °C 24.6 °C 1009.4 hPa SSE 4.8 km/h 9.7 km/h 90 % 0 mm
04:02 26.4 °C 24.6 °C 1009 hPa South 6.4 km/h 14.5 km/h 90 % 0 mm
04:07 26.4 °C 24.6 °C 1009 hPa SSE 4.8 km/h 14.5 km/h 90 % 0 mm
04:12 26.3 °C 24.5 °C 1009 hPa South 4.8 km/h 14.5 km/h 90 % 0 mm
04:17 26.3 °C 24.7 °C 1008.7 hPa SSE 11.3 km/h 12.9 km/h 91 % 0 mm
04:22 26.3 °C 24.7 °C 1009 hPa South 8 km/h 12.9 km/h 91 % 0 mm
04:27 26.3 °C 24.7 °C 1008.7 hPa South 8 km/h 14.5 km/h 91 % 0 mm
04:32 26.2 °C 24.6 °C 1008.7 hPa SSW 6.4 km/h 16.1 km/h 91 % 0 mm
04:37 26.2 °C 24.6 °C 1009 hPa South 11.3 km/h 16.1 km/h 91 % 0 mm
04:42 26.2 °C 24.6 °C 1009 hPa SSE 4.8 km/h 17.7 km/h 91 % 0 mm
04:47 26.2 °C 24.6 °C 1009 hPa South 6.4 km/h 19.3 km/h 91 % 0 mm
04:52 26.2 °C 24.6 °C 1009 hPa SSW 9.7 km/h 19.3 km/h 91 % 0 mm
04:57 26.3 °C 24.7 °C 1008.7 hPa South 8 km/h 20.9 km/h 91 % 0 mm
05:02 26.3 °C 24.7 °C 1008.7 hPa South 6.4 km/h 20.9 km/h 91 % 0 mm
05:07 26.2 °C 24.6 °C 1008.7 hPa SE 9.7 km/h 20.9 km/h 91 % 0 mm
05:12 26.2 °C 24.6 °C 1008.7 hPa SSE 6.4 km/h 16.1 km/h 91 % 0 mm
05:17 26.2 °C 24.6 °C 1008.7 hPa SSE 6.4 km/h 14.5 km/h 91 % 0 mm
05:22 26.2 °C 24.6 °C 1009 hPa SSW 3.2 km/h 17.7 km/h 91 % 0 mm
05:27 26.1 °C 24.5 °C 1009.4 hPa SE 4.8 km/h 17.7 km/h 91 % 0 mm
05:32 26.1 °C 24.5 °C 1009.4 hPa South 3.2 km/h 17.7 km/h 91 % 0 mm
05:37 26.1 °C 24.5 °C 1009.4 hPa SSW 1.6 km/h 11.3 km/h 91 % 0 mm
05:42 26.1 °C 24.7 °C 1009.4 hPa South 3.2 km/h 6.4 km/h 92 % 0 mm
05:47 26.1 °C 24.7 °C 1009.4 hPa South 3.2 km/h 6.4 km/h 92 % 0 mm
05:52 26.1 °C 24.7 °C 1009.4 hPa SSW 3.2 km/h 6.4 km/h 92 % 0 mm
06:02 26.1 °C 24.7 °C 1009.4 hPa SSE 3.2 km/h 8 km/h 92 % 0 mm
06:07 26.1 °C 24.7 °C 1009.7 hPa SSW 3.2 km/h 8 km/h 92 % 0 mm
06:12 26.1 °C 24.7 °C 1009.7 hPa South 6.4 km/h 8 km/h 92 % 0 mm
06:17 26.2 °C 24.8 °C 1009.7 hPa SSE 6.4 km/h 9.7 km/h 92 % 0 mm
06:22 26.2 °C 24.8 °C 1009.7 hPa SE 4.8 km/h 12.9 km/h 92 % 0 mm
06:27 26.2 °C 24.8 °C 1010 hPa SSE 4.8 km/h 12.9 km/h 92 % 0 mm
06:32 26.2 °C 24.8 °C 1010 hPa South 1.6 km/h 12.9 km/h 92 % 0 mm
06:37 26.2 °C 24.8 °C 1010 hPa SSE 3.2 km/h 11.3 km/h 92 % 0 mm
06:42 26.3 °C 24.9 °C 1010.4 hPa ESE 4.8 km/h 9.7 km/h 92 % 0 mm
06:47 26.3 °C 24.9 °C 1010.4 hPa Calm   11.3 km/h 92 % 0 mm
06:52 26.3 °C 24.7 °C 1010.7 hPa SSE 1.6 km/h 11.3 km/h 91 % 0 mm
06:57 26.4 °C 24.8 °C 1010.7 hPa SE 3.2 km/h 11.3 km/h 91 % 0 mm
07:02 26.4 °C 24.8 °C 1010.7 hPa SE 4.8 km/h 6.4 km/h 91 % 0 mm
07:07 26.5 °C 24.9 °C 1011.1 hPa Calm   4.8 km/h 91 % 0 mm
07:12 26.6 °C 25 °C 1011.1 hPa SE 1.6 km/h 4.8 km/h 91 % 0 mm
07:17 26.6 °C 25 °C 1011.4 hPa South 1.6 km/h 4.8 km/h 91 % 0 mm
07:22 26.7 °C 25.1 °C 1011.4 hPa Calm   6.4 km/h 91 % 0 mm
07:27 26.8 °C 25.2 °C 1011.4 hPa Calm   6.4 km/h 91 % 0 mm
07:32 26.8 °C 25 °C 1011.7 hPa SSE 1.6 km/h 6.4 km/h 90 % 0 mm
07:37 26.9 °C 25.1 °C 1011.7 hPa ESE 1.6 km/h 4.8 km/h 90 % 0 mm
07:43 27.1 °C 25.3 °C 1011.7 hPa SSW 3.2 km/h 4.8 km/h 90 % 0 mm
07:48 27.1 °C 25.1 °C 1011.7 hPa SSW 3.2 km/h 4.8 km/h 89 % 0 mm
07:53 27.1 °C 25.3 °C 1011.7 hPa SSE 3.2 km/h 6.4 km/h 90 % 0 mm
07:58 27.1 °C 25.1 °C 1011.7 hPa SE 1.6 km/h 8 km/h 89 % 0 mm
08:03 27.1 °C 25.1 °C 1012.1 hPa SE 1.6 km/h 8 km/h 89 % 0 mm
08:08 27.1 °C 25.1 °C 1012.1 hPa SSW 1.6 km/h 8 km/h 89 % 0 mm
08:13 27.1 °C 25.1 °C 1012.4 hPa SSE 1.6 km/h 6.4 km/h 89 % 0 mm
08:18 27.1 °C 25.1 °C 1012.1 hPa South 4.8 km/h 6.4 km/h 89 % 0 mm
08:23 27.2 °C 25.2 °C 1012.1 hPa SSE 8 km/h 9.7 km/h 89 % 0 mm
08:28 27.3 °C 25.1 °C 1012.1 hPa SSW 6.4 km/h 14.5 km/h 88 % 0 mm
08:32 27.5 °C 25.3 °C 1012.1 hPa South 6.4 km/h 14.5 km/h 88 % 0 mm
08:33 27.6 °C 25.4 °C 1012.1 hPa SSE 8 km/h 14.5 km/h 88 % 0 mm
08:38 27.7 °C 25.3 °C 1012.4 hPa SSE 4.8 km/h 14.5 km/h 87 % 0 mm
08:43 27.8 °C 25.2 °C 1012.4 hPa SSE 9.7 km/h 14.5 km/h 86 % 0 mm
08:48 27.9 °C 25.3 °C 1012.8 hPa South 6.4 km/h 14.5 km/h 86 % 0 mm
08:53 28.2 °C 25.4 °C 1012.8 hPa SSW 4.8 km/h 14.5 km/h 85 % 0 mm
08:58 28.3 °C 25.3 °C 1013.1 hPa South 4.8 km/h 12.9 km/h 84 % 0 mm
09:00 28.3 °C 25.3 °C 1013.1 hPa SSE 4.8 km/h 12.9 km/h 84 % 0 mm
09:05 28.3 °C 25.3 °C 1013.4 hPa Calm   11.3 km/h 84 % 0 mm
09:10 28.4 °C 25.4 °C 1013.8 hPa Calm   9.7 km/h 84 % 0 mm
09:14 28.3 °C 25.3 °C 1013.8 hPa SE 1.6 km/h 8 km/h 84 % 0 mm
09:19 28.3 °C 25.1 °C 1013.8 hPa Calm   6.4 km/h 83 % 0 mm
09:24 28.3 °C 25.3 °C 1013.8 hPa SE 6.4 km/h 6.4 km/h 84 % 0 mm
09:29 28.3 °C 25.3 °C 1013.8 hPa Calm   6.4 km/h 84 % 0 mm
09:34 28.3 °C 25.3 °C 1013.8 hPa Calm   6.4 km/h 84 % 0 mm
09:39 28.3 °C 25.3 °C 1013.8 hPa Calm   6.4 km/h 84 % 0 mm
09:45 28.4 °C 25.6 °C 1014.1 hPa Calm   4.8 km/h 85 % 0 mm
09:50 28.7 °C 25.7 °C 1014.4 hPa NE 1.6 km/h 6.4 km/h 84 % 0 mm
09:55 29.1 °C 26.1 °C 1014.4 hPa ESE 6.4 km/h 6.4 km/h 84 % 0 mm
10:00 29.3 °C 25.9 °C 1014.4 hPa NNW 1.6 km/h 8 km/h 82 % 0 mm
10:05 29.2 °C 25.4 °C 1014.4 hPa Calm   8 km/h 80 % 0 mm
10:10 29.3 °C 25.7 °C 1014.1 hPa SE 4.8 km/h 8 km/h 81 % 0 mm
10:15 29.7 °C 25.9 °C 1014.1 hPa ESE 4.8 km/h 9.7 km/h 80 % 0 mm
10:20 30.1 °C 26.1 °C 1014.1 hPa NNW 1.6 km/h 9.7 km/h 79 % 0 mm
10:25 30.6 °C 26.5 °C 1014.4 hPa NW 1.6 km/h 9.7 km/h 79 % 0 mm
10:30 31.1 °C 25.9 °C 1014.1 hPa SE 6.4 km/h 11.3 km/h 74 % 0 mm
10:35 30.9 °C 25.9 °C 1014.4 hPa SSE 3.2 km/h 11.3 km/h 75 % 0 mm
10:40 30.9 °C 25.9 °C 1014.1 hPa SE 3.2 km/h 11.3 km/h 75 % 0 mm
10:45 31.1 °C 25.9 °C 1014.1 hPa East 3.2 km/h 11.3 km/h 74 % 0 mm
10:50 31.2 °C 26 °C 1014.1 hPa ESE 8 km/h 12.9 km/h 74 % 0 mm
10:55 31.1 °C 25.7 °C 1013.8 hPa East 3.2 km/h 12.9 km/h 73 % 0 mm
11:00 30.9 °C 25.7 °C 1013.8 hPa SSE 6.4 km/h 12.9 km/h 74 % 0 mm
11:05 30.9 °C 25.7 °C 1013.8 hPa SE 4.8 km/h 11.3 km/h 74 % 0 mm
11:10 30.9 °C 25.7 °C 1013.8 hPa East 4.8 km/h 12.9 km/h 74 % 0 mm
11:15 30.8 °C 25.4 °C 1013.8 hPa East 1.6 km/h 16.1 km/h 73 % 0 mm
11:20 31.1 °C 25.5 °C 1013.4 hPa SSE 6.4 km/h 16.1 km/h 72 % 0 mm
11:25 31.4 °C 25.5 °C 1013.4 hPa ESE 1.6 km/h 16.1 km/h 71 % 0 mm
11:30 31.6 °C 25.9 °C 1013.4 hPa SE 3.2 km/h 14.5 km/h 72 % 0 mm
11:35 31.8 °C 25.9 °C 1013.4 hPa SSW 8 km/h 14.5 km/h 71 % 0 mm
11:40 32 °C 25.6 °C 1013.4 hPa South 3.2 km/h 17.7 km/h 69 % 0 mm
11:45 32 °C 25.6 °C 1013.4 hPa ESE 9.7 km/h 17.7 km/h 69 % 0 mm
11:50 32.2 °C 25.8 °C 1013.4 hPa South 8 km/h 17.7 km/h 69 % 0 mm
11:55 32.2 °C 25.8 °C 1013.4 hPa SE 8 km/h 16.1 km/h 69 % 0 mm
12:01 32.2 °C 25.3 °C 1013.1 hPa East 16.1 km/h 17.7 km/h 67 % 0 mm
12:06 32.3 °C 25.4 °C 1013.1 hPa SW 20.9 km/h 24.1 km/h 67 % 0 mm
12:11 32.4 °C 25.2 °C 1013.1 hPa SSE 9.7 km/h 24.1 km/h 66 % 0 mm
12:16 32.6 °C 25.4 °C 1012.8 hPa East 9.7 km/h 24.1 km/h 66 % 0 mm
12:21 32.6 °C 25.4 °C 1013.1 hPa SE 9.7 km/h 20.9 km/h 66 % 0 mm
12:26 32.6 °C 25.2 °C 1013.1 hPa SE 8 km/h 19.3 km/h 65 % 0 mm
12:31 32.7 °C 25.8 °C 1012.8 hPa SE 9.7 km/h 19.3 km/h 67 % 0 mm
12:36 32.8 °C 25.3 °C 1012.8 hPa South 11.3 km/h 19.3 km/h 65 % 0 mm
12:41 32.8 °C 25.3 °C 1012.8 hPa SSW 11.3 km/h 22.5 km/h 65 % 0 mm
12:46 32.8 °C 25.3 °C 1012.8 hPa SSE 9.7 km/h 24.1 km/h 65 % 0 mm
12:51 33.1 °C 25.6 °C 1012.8 hPa South 11.3 km/h 24.1 km/h 65 % 0 mm
12:56 33.1 °C 25.4 °C 1012.8 hPa SSE 6.4 km/h 24.1 km/h 64 % 0 mm
13:01 33.2 °C 25.5 °C 1012.8 hPa SSE 9.7 km/h 20.9 km/h 64 % 0 mm
13:06 33.3 °C 25.3 °C 1012.8 hPa South 11.3 km/h 20.9 km/h 63 % 0 mm
13:11 33.6 °C 25.6 °C 1012.8 hPa ESE 8 km/h 20.9 km/h 63 % 0 mm
13:16 33.6 °C 25.6 °C 1012.4 hPa SE 8 km/h 19.3 km/h 63 % 0 mm
13:21 33.3 °C 25 °C 1012.4 hPa South 9.7 km/h 19.3 km/h 62 % 0 mm
13:26 33.2 °C 25.2 °C 1012.4 hPa SE 12.9 km/h 19.3 km/h 63 % 0 mm
13:31 33.3 °C 25 °C 1012.4 hPa East 19.3 km/h 19.3 km/h 62 % 0 mm
13:36 33.2 °C 24.9 °C 1012.4 hPa SSW 12.9 km/h 20.9 km/h 62 % 0 mm
13:41 33.2 °C 24.9 °C 1012.4 hPa ESE 11.3 km/h 20.9 km/h 62 % 0 mm
13:46 33.2 °C 24.9 °C 1012.1 hPa SSE 6.4 km/h 20.9 km/h 62 % 0 mm
13:51 33.2 °C 24.9 °C 1012.1 hPa SE 9.7 km/h 20.9 km/h 62 % 0 mm
13:56 33.2 °C 25.7 °C 1012.1 hPa ESE 9.7 km/h 22.5 km/h 65 % 0 mm
14:01 33.1 °C 25.4 °C 1012.1 hPa SE 9.7 km/h 22.5 km/h 64 % 0 mm
14:06 32.7 °C 25.3 °C 1012.1 hPa East 14.5 km/h 22.5 km/h 65 % 0 mm
14:11 32.6 °C 25.7 °C 1012.1 hPa SE 12.9 km/h 20.9 km/h 67 % 0 mm
14:16 32.7 °C 26 °C 1012.1 hPa SSE 14.5 km/h 20.9 km/h 68 % 0 mm
14:21 32.8 °C 25.6 °C 1012.1 hPa ESE 11.3 km/h 20.9 km/h 66 % 0 mm
14:26 32.4 °C 25.5 °C 1012.1 hPa SE 12.9 km/h 20.9 km/h 67 % 0 mm
14:31 32.4 °C 25.7 °C 1011.7 hPa ESE 4.8 km/h 20.9 km/h 68 % 0 mm
14:36 32.3 °C 25.4 °C 1012.1 hPa ESE 20.9 km/h 22.5 km/h 67 % 0 mm
14:41 32.1 °C 25.4 °C 1012.1 hPa East 6.4 km/h 27.4 km/h 68 % 0 mm
14:46 32.1 °C 25.4 °C 1012.1 hPa SE 8 km/h 27.4 km/h 68 % 0 mm
14:51 32.2 °C 25.5 °C 1012.1 hPa East 12.9 km/h 27.4 km/h 68 % 0 mm
14:56 32.1 °C 25.4 °C 1012.1 hPa SE 11.3 km/h 22.5 km/h 68 % 0 mm
15:01 31.9 °C 25.7 °C 1011.7 hPa SSE 12.9 km/h 20.9 km/h 70 % 0 mm
15:06 31.8 °C 25.9 °C 1011.7 hPa ESE 11.3 km/h 22.5 km/h 71 % 0 mm
15:11 31.9 °C 26 °C 1011.7 hPa SSE 8 km/h 25.7 km/h 71 % 0 mm
15:16 32.2 °C 26 °C 1011.7 hPa ESE 8 km/h 25.7 km/h 70 % 0 mm
15:21 32.3 °C 25.9 °C 1011.7 hPa SSE 16.1 km/h 25.7 km/h 69 % 0 mm
15:26 32.5 °C 26.1 °C 1011.7 hPa SE 9.7 km/h 24.1 km/h 69 % 0 mm
15:31 32.4 °C 25.7 °C 1011.7 hPa SE 11.3 km/h 24.1 km/h 68 % 0 mm
15:36 32.2 °C 25.5 °C 1011.7 hPa South 19.3 km/h 22.5 km/h 68 % 0 mm
15:41 32.2 °C 25.8 °C 1011.4 hPa South 9.7 km/h 22.5 km/h 69 % 0 mm
15:46 32.1 °C 25.7 °C 1011.7 hPa SE 6.4 km/h 20.9 km/h 69 % 0 mm
15:51 31.9 °C 25.5 °C 1011.4 hPa SE 11.3 km/h 20.9 km/h 69 % 0 mm
15:56 32.1 °C 25.7 °C 1011.4 hPa SSE 12.9 km/h 19.3 km/h 69 % 0 mm
16:01 32.3 °C 25.6 °C 1011.4 hPa East 12.9 km/h 19.3 km/h 68 % 0 mm
16:03 32.3 °C 25.6 °C 1011.4 hPa East 11.3 km/h 19.3 km/h 68 % 0 mm
16:08 32.1 °C 25.4 °C 1011.4 hPa SSE 8 km/h 20.9 km/h 68 % 0 mm
16:13 32.1 °C 25.7 °C 1011.4 hPa East 22.5 km/h 22.5 km/h 69 % 0 mm
16:18 31.8 °C 25.4 °C 1011.4 hPa ENE 17.7 km/h 24.1 km/h 69 % 0 mm
16:23 31.8 °C 25.6 °C 1011.1 hPa SE 12.9 km/h 24.1 km/h 70 % 0 mm
16:28 31.8 °C 25.6 °C 1011.1 hPa East 14.5 km/h 24.1 km/h 70 % 0 mm
16:33 31.9 °C 25.5 °C 1011.1 hPa SE 14.5 km/h 24.1 km/h 69 % 0 mm
16:38 32.1 °C 25.7 °C 1011.1 hPa SE 9.7 km/h 27.4 km/h 69 % 0 mm
16:43 32.1 °C 25.4 °C 1011.1 hPa ESE 17.7 km/h 27.4 km/h 68 % 0 mm
16:48 31.9 °C 25.5 °C 1011.1 hPa SE 12.9 km/h 27.4 km/h 69 % 0 mm
16:53 31.9 °C 25.3 °C 1011.1 hPa ESE 9.7 km/h 24.1 km/h 68 % 0 mm
16:58 31.9 °C 25.3 °C 1010.7 hPa SSE 14.5 km/h 24.1 km/h 68 % 0 mm
17:03 32.1 °C 25.4 °C 1010.7 hPa SSE 11.3 km/h 20.9 km/h 68 % 0 mm
17:08 32.3 °C 25.6 °C 1010.4 hPa SSE 8 km/h 20.9 km/h 68 % 0 mm
17:09 32.4 °C 25.7 °C 1010.4 hPa South 6.4 km/h 20.9 km/h 68 % 0 mm
17:14 32.4 °C 25.7 °C 1010.4 hPa SE 6.4 km/h 20.9 km/h 68 % 0 mm
17:19 32.4 °C 25.5 °C 1010.4 hPa ESE 16.1 km/h 19.3 km/h 67 % 0 mm
17:24 32.2 °C 25.8 °C 1010 hPa SE 8 km/h 19.3 km/h 69 % 0 mm
17:29 32.3 °C 25.6 °C 1010 hPa SE 9.7 km/h 19.3 km/h 68 % 0 mm
17:34 32.4 °C 25.5 °C 1009.7 hPa SE 9.7 km/h 17.7 km/h 67 % 0 mm
17:39 32.3 °C 25.4 °C 1009.4 hPa SE 12.9 km/h 20.9 km/h 67 % 0 mm
17:44 32.3 °C 25.1 °C 1009.4 hPa SW 11.3 km/h 20.9 km/h 66 % 0 mm
17:49 32.4 °C 25.2 °C 1009.4 hPa South 12.9 km/h 20.9 km/h 66 % 0 mm
17:54 32.4 °C 25.2 °C 1009 hPa SE 8 km/h 17.7 km/h 66 % 0 mm
17:59 32.4 °C 25.2 °C 1009 hPa South 8 km/h 20.9 km/h 66 % 0 mm
18:04 32.3 °C 25.4 °C 1008.7 hPa ESE 8 km/h 24.1 km/h 67 % 0 mm
18:09 32.2 °C 25.5 °C 1008.7 hPa ESE 16.1 km/h 25.7 km/h 68 % 0 mm
18:14 32 °C 25.3 °C 1008.4 hPa SSE 11.3 km/h 25.7 km/h 68 % 0 mm
18:19 32.1 °C 25.2 °C 1008.4 hPa SSE 9.7 km/h 25.7 km/h 67 % 0 mm
18:24 31.8 °C 24.9 °C 1008 hPa SSE 22.5 km/h 22.5 km/h 67 % 0 mm
18:29 31.4 °C 25 °C 1008.4 hPa SSE 12.9 km/h 22.5 km/h 69 % 0 mm
18:34 31.1 °C 25 °C 1008.4 hPa South 8 km/h 22.5 km/h 70 % 0 mm
18:39 30.8 °C 24.9 °C 1008.4 hPa South 8 km/h 22.5 km/h 71 % 0 mm
18:44 30.6 °C 25 °C 1008.4 hPa SW 12.9 km/h 22.5 km/h 72 % 0 mm
18:49 30.4 °C 24.8 °C 1008.7 hPa South 11.3 km/h 20.9 km/h 72 % 0 mm
18:54 30.3 °C 24.7 °C 1008.7 hPa South 3.2 km/h 25.7 km/h 72 % 0 mm
18:59 30.3 °C 24.7 °C 1009 hPa South 8 km/h 25.7 km/h 72 % 0 mm
19:04 30.3 °C 24.9 °C 1009.4 hPa SSW 8 km/h 25.7 km/h 73 % 0 mm
19:09 30.3 °C 24.9 °C 1009.7 hPa SSW 8 km/h 19.3 km/h 73 % 0 mm
19:14 30.3 °C 24.9 °C 1009.7 hPa SW 4.8 km/h 17.7 km/h 73 % 0 mm
19:19 30.2 °C 25 °C 1009.7 hPa South 4.8 km/h 17.7 km/h 74 % 0 mm
19:24 30.2 °C 24.8 °C 1009.4 hPa SSW 16.1 km/h 16.1 km/h 73 % 0 mm
19:29 30.1 °C 25 °C 1009.4 hPa SSW 9.7 km/h 16.1 km/h 74 % 0 mm
19:34 29.9 °C 24.8 °C 1009 hPa SSE 9.7 km/h 16.1 km/h 74 % 0 mm
19:39 29.8 °C 24.7 °C 1009 hPa South 8 km/h 17.7 km/h 74 % 0 mm
19:44 29.7 °C 24.6 °C 1009.4 hPa South 1.6 km/h 17.7 km/h 74 % 0 mm
19:50 29.7 °C 24.8 °C 1009.7 hPa SSE 3.2 km/h 17.7 km/h 75 % 0 mm
19:55 29.6 °C 24.7 °C 1009.7 hPa SE 6.4 km/h 17.7 km/h 75 % 0 mm
20:00 29.6 °C 24.9 °C 1010 hPa SSE 3.2 km/h 17.7 km/h 76 % 0 mm
20:05 29.4 °C 24.7 °C 1010.7 hPa SW 4.8 km/h 12.9 km/h 76 % 0 mm
20:10 29.3 °C 24.6 °C 1011.1 hPa SSE 4.8 km/h 12.9 km/h 76 % 0 mm
20:15 29.3 °C 24.6 °C 1011.4 hPa South 6.4 km/h 12.9 km/h 76 % 0 mm
20:20 29.3 °C 24.8 °C 1011.7 hPa South 8 km/h 12.9 km/h 77 % 0 mm
20:25 29.3 °C 24.8 °C 1011.7 hPa South 4.8 km/h 12.9 km/h 77 % 0 mm
20:30 29.2 °C 24.7 °C 1011.7 hPa South 4.8 km/h 12.9 km/h 77 % 0 mm
20:35 29.1 °C 24.9 °C 1011.7 hPa ESE 9.7 km/h 9.7 km/h 78 % 0 mm
20:40 29.1 °C 24.9 °C 1011.7 hPa SSW 3.2 km/h 9.7 km/h 78 % 0 mm
20:45 29 °C 24.8 °C 1011.7 hPa ESE 4.8 km/h 9.7 km/h 78 % 0 mm
20:50 29 °C 25 °C 1011.7 hPa SSE 6.4 km/h 9.7 km/h 79 % 0 mm
20:55 29 °C 25 °C 1012.1 hPa ESE 3.2 km/h 9.7 km/h 79 % 0 mm
21:00 28.9 °C 24.9 °C 1012.1 hPa SE 1.6 km/h 8 km/h 79 % 0 mm
21:05 28.9 °C 24.9 °C 1012.4 hPa South 3.2 km/h 8 km/h 79 % 0 mm
21:10 28.8 °C 25 °C 1012.8 hPa SE 4.8 km/h 8 km/h 80 % 0 mm
21:15 28.8 °C 25 °C 1012.8 hPa SE 3.2 km/h 6.4 km/h 80 % 0 mm
21:20 28.7 °C 24.9 °C 1012.8 hPa SE 8 km/h 8 km/h 80 % 0 mm
21:25 28.7 °C 24.9 °C 1012.8 hPa ESE 6.4 km/h 9.7 km/h 80 % 0 mm
21:30 28.7 °C 25.1 °C 1012.8 hPa South 6.4 km/h 9.7 km/h 81 % 0 mm
21:35 28.7 °C 25.1 °C 1013.1 hPa SE 6.4 km/h 11.3 km/h 81 % 0 mm
21:40 28.7 °C 25.1 °C 1013.8 hPa SSE 1.6 km/h 11.3 km/h 81 % 0 mm
21:45 28.6 °C 25 °C 1013.8 hPa SSE 3.2 km/h 11.3 km/h 81 % 0 mm
21:50 28.6 °C 25 °C 1013.4 hPa SE 6.4 km/h 12.9 km/h 81 % 0 mm
21:55 28.6 °C 25 °C 1013.4 hPa SSE 6.4 km/h 12.9 km/h 81 % 0 mm
22:00 28.4 °C 24.8 °C 1013.4 hPa SE 4.8 km/h 12.9 km/h 81 % 0 mm
22:05 28.4 °C 24.8 °C 1013.8 hPa East 3.2 km/h 12.9 km/h 81 % 0 mm
22:10 28.4 °C 24.8 °C 1013.8 hPa ESE 3.2 km/h 12.9 km/h 81 % 0 mm
22:12 28.4 °C 24.8 °C 1013.8 hPa SE 3.2 km/h 12.9 km/h 81 % 0 mm
22:17 28.3 °C 24.9 °C 1014.4 hPa East 4.8 km/h 9.7 km/h 82 % 0 mm
22:22 28.3 °C 24.9 °C 1014.4 hPa ESE 3.2 km/h 6.4 km/h 82 % 0 mm
22:27 28.3 °C 24.9 °C 1014.8 hPa SE 3.2 km/h 6.4 km/h 82 % 0 mm
22:32 28.2 °C 24.8 °C 1014.8 hPa Calm   6.4 km/h 82 % 0 mm
22:37 28.2 °C 25 °C 1014.4 hPa Calm   6.4 km/h 83 % 0 mm
22:42 28.1 °C 24.9 °C 1014.4 hPa Calm   6.4 km/h 83 % 0 mm
22:47 28.1 °C 24.9 °C 1014.8 hPa NNE 1.6 km/h 4.8 km/h 83 % 0 mm
22:52 28 °C 25 °C 1015.5 hPa NNW 8 km/h 8 km/h 84 % 0 mm
22:57 26.6 °C 21.1 °C 1015.8 hPa NNW 16.1 km/h 22.5 km/h 72 % 0 mm
23:02 25.6 °C 21.1 °C 1015.8 hPa West 12.9 km/h 27.4 km/h 76 % 0 mm
23:07 25.1 °C 21 °C 1016.1 hPa North 14.5 km/h 29 km/h 78 % 0 mm
23:12 24.8 °C 21.1 °C 1016.1 hPa WNW 14.5 km/h 29 km/h 80 % 0 mm
23:17 24.3 °C 21.4 °C 1016.1 hPa NNW 6.4 km/h 29 km/h 84 % 0 mm
23:22 23.8 °C 21.3 °C 1016.8 hPa NW 3.2 km/h 25.7 km/h 86 % 0 mm
23:27 23.3 °C 21.2 °C 1017.2 hPa NE 6.4 km/h 22.5 km/h 88 % 0.25 mm
23:32 22.9 °C 21.2 °C 1017.2 hPa West 1.6 km/h 22.5 km/h 90 % 1.02 mm
23:37 22.6 °C 20.9 °C 1017.2 hPa Calm   17.7 km/h 90 % 2.03 mm
23:42 22.2 °C 20.7 °C 1016.5 hPa East 1.6 km/h 11.3 km/h 91 % 4.57 mm
23:47 22 °C 20.6 °C 1016.8 hPa Calm   11.3 km/h 92 % 6.35 mm
23:52 21.9 °C 20.7 °C 1017.2 hPa Calm   4.8 km/h 93 % 7.62 mm
23:57 21.9 °C 20.7 °C 1017.2 hPa SSE 3.2 km/h 6.4 km/h 93 % 8.64 mm
Spring, Texas: Villages of Bridgestone
Compliments of Weather Underground - 3.25 mb

Script developed by  Jim McMurry - jmcmurry@mwt.net Adapted for the template by  Wim van der Kuil - Leuven-Template.eu

You find our weather info also at:

UK Metoffice

WeatherCloud

Weather Underground

Mid-South Weather Network

AWEKAS

Citizen Weather Observer Program (CWOP)

HAMweather, WeatherForYou, PWS Weather

Equipment we use:

Weather-station
Davis Vantage Vue

Weather-program
Meteohub

Weather-server
Debian 7.9 x86 (Guest)

Provider
DreamHost

Davis Vantage Vue

Meteohub

Debian 7.9 x86 (Guest)

DreamHost